| time (UTC) | temp C | wind direction | speed KPH | gust KPH | rain 1hr cm | rain 24hr cm | rain mn cm | humidity % | barometer mb |
| 20260901131416 | 25 | 91 | 3.2 | 4.8 | 0.00 | 0.66 | 0.00 | 87 | 1014.1 |
| 20260901130416 | 25 | 102 | 1.6 | 3.2 | 0.00 | 0.66 | 0.00 | 87 | 1013.9 |
| 20260901125416 | 25 | 107 | 3.2 | 4.8 | 0.00 | 0.66 | 0.00 | 87 | 1013.9 |
| 20260901124417 | 25 | 82 | 3.2 | 4.8 | 0.00 | 0.66 | 0.00 | 87 | 1013.7 |
| 20260901123416 | 25 | 102 | 3.2 | 4.8 | 0.00 | 0.66 | 0.00 | 87 | 1013.6 |
| 20260901122416 | 25 | 107 | 3.2 | 4.8 | 0.00 | 0.66 | 0.00 | 87 | 1013.6 |
| 20260901121416 | 25 | 130 | 1.6 | 3.2 | 0.00 | 0.66 | 0.00 | 87 | 1013.5 |
| 20260901120416 | 25 | 118 | 3.2 | 3.2 | 0.00 | 0.66 | 0.00 | 87 | 1013.4 |
| 20260901115416 | 25 | 98 | 3.2 | 4.8 | 0.00 | 0.66 | 0.00 | 88 | 1013.4 |
| 20260901114416 | 25 | 103 | 1.6 | 4.8 | 0.00 | 0.66 | 0.00 | 88 | 1013.4 |
| 20260901113416 | 25 | 122 | 6.4 | 6.4 | 0.00 | 0.66 | 0.00 | 88 | 1013.4 |
| 20260901112416 | 25 | 111 | 3.2 | 6.4 | 0.00 | 0.66 | 0.00 | 88 | 1013.4 |
| 20260901111416 | 25 | 92 | 4.8 | 6.4 | 0.00 | 0.66 | 0.00 | 88 | 1013.4 |
| 20260901110416 | 25 | 78 | 4.8 | 6.4 | 0.00 | 0.66 | 0.00 | 87 | 1013.4 |
| 20260901105416 | 25 | 89 | 3.2 | 6.4 | 0.00 | 0.66 | 0.00 | 87 | 1013.4 |
| 20260901104416 | 25 | 80 | 6.4 | 8.0 | 0.00 | 0.66 | 0.00 | 87 | 1013.2 |
| 20260901103416 | 25 | 71 | 6.4 | 8.0 | 0.00 | 0.66 | 0.00 | 86 | 1013.3 |
| 20260901102416 | 26 | 72 | 4.8 | 4.8 | 0.00 | 0.66 | 0.00 | 86 | 1013.4 |
| 20260901101416 | 26 | 88 | 3.2 | 4.8 | 0.00 | 0.66 | 0.00 | 85 | 1013.2 |
| 20260901100416 | 26 | 81 | 1.6 | 1.6 | 0.00 | 0.66 | 0.00 | 85 | 1013.2 |
| 20260901095416 | 26 | 77 | 3.2 | 4.8 | 0.00 | 0.66 | 0.00 | 85 | 1013.4 |
| 20260901094416 | 26 | 86 | 0.0 | 3.2 | 0.00 | 0.66 | 0.00 | 85 | 1013.4 |
| 20260901093416 | 26 | 97 | 3.2 | 6.4 | 0.00 | 0.66 | 0.00 | 85 | 1013.5 |
| 20260901092416 | 26 | 94 | 3.2 | 6.4 | 0.00 | 0.66 | 0.00 | 85 | 1013.5 |
| 20260901091416 | 26 | 78 | 4.8 | 8.0 | 0.00 | 0.66 | 0.00 | 85 | 1013.9 |
| 20260901090416 | 26 | 93 | 3.2 | 4.8 | 0.00 | 0.66 | 0.00 | 85 | 1013.9 |
| 20260901085417 | 26 | 67 | 3.2 | 4.8 | 0.00 | 0.66 | 0.00 | 84 | 1013.9 |
| 20260901084416 | 26 | 93 | 4.8 | 6.4 | 0.00 | 0.66 | 0.00 | 85 | 1014.1 |
| 20260901083437 | 26 | 87 | 1.6 | 3.2 | 0.00 | 0.66 | 0.00 | 86 | 1014.1 |
| 20260901082416 | 26 | 72 | 3.2 | 4.8 | 0.00 | 0.66 | 0.00 | 86 | 1014.0 |
| 20260901081417 | 26 | 96 | 3.2 | 4.8 | 0.00 | 0.66 | 0.00 | 86 | 1013.9 |
| 20260901080416 | 26 | 102 | 3.2 | 4.8 | 0.00 | 0.66 | 0.00 | 86 | 1013.8 |
| 20260901075416 | 26 | 90 | 1.6 | 3.2 | 0.00 | 0.66 | 0.00 | 87 | 1013.7 |
| 20260901074416 | 26 | 96 | 3.2 | 4.8 | 0.00 | 0.66 | 0.00 | 88 | 1013.8 |
| 20260901073436 | 26 | 71 | 3.2 | 3.2 | 0.00 | 0.66 | 0.00 | 88 | 1013.7 |
| 20260901072416 | 26 | 0.0 | 0.0 | 0.00 | 0.66 | 0.00 | 88 | 1013.8 | |
| 20260901071416 | 26 | 0.0 | 3.2 | 0.00 | 0.66 | 0.00 | 88 | 1013.9 | |
| 20260901070416 | 26 | 72 | 1.6 | 6.4 | 0.00 | 0.66 | 0.00 | 87 | 1013.7 |
| 20260901065436 | 26 | 69 | 3.2 | 6.4 | 0.00 | 0.66 | 0.00 | 86 | 1013.8 |
| 20260901064416 | 26 | 77 | 4.8 | 8.0 | 0.00 | 0.66 | 0.00 | 86 | 1013.7 |
| 20260901063438 | 26 | 80 | 4.8 | 6.4 | 0.00 | 0.66 | 0.00 | 85 | 1013.6 |
| 20260901062416 | 26 | 124 | 3.2 | 8.0 | 0.00 | 0.66 | 0.00 | 85 | 1013.8 |
| 20260901061416 | 26 | 83 | 3.2 | 3.2 | 0.00 | 0.66 | 0.00 | 84 | 1013.8 |
| 20260901060416 | 26 | 125 | 3.2 | 4.8 | 0.00 | 0.66 | 0.00 | 84 | 1014.0 |
| 20260901055457 | 26 | 128 | 3.2 | 6.4 | 0.00 | 0.66 | 0.00 | 84 | 1014.1 |
| 20260901054416 | 26 | 99 | 3.2 | 4.8 | 0.00 | 0.66 | 0.00 | 84 | 1014.3 |
| 20260901053416 | 26 | 78 | 6.4 | 8.0 | 0.00 | 0.66 | 0.00 | 83 | 1014.2 |
| 20260901052416 | 26 | 97 | 4.8 | 8.0 | 0.00 | 0.66 | 0.00 | 84 | 1014.3 |
| 20260901051416 | 26 | 95 | 4.8 | 6.4 | 0.00 | 0.66 | 0.00 | 84 | 1014.6 |
| 20260901050417 | 26 | 93 | 4.8 | 11.3 | 0.00 | 0.66 | 0.00 | 84 | 1014.7 |
| 20260901045416 | 26 | 108 | 6.4 | 11.3 | 0.00 | 0.66 | 0.00 | 84 | 1014.8 |
| 20260901044416 | 26 | 80 | 9.7 | 9.7 | 0.00 | 0.66 | 0.00 | 84 | 1014.9 |
| 20260901043416 | 26 | 83 | 4.8 | 8.0 | 0.00 | 0.66 | 0.00 | 83 | 1015.0 |
| 20260901042457 | 26 | 81 | 9.7 | 14.5 | 0.00 | 0.66 | 0.00 | 83 | 1015.1 |
| 20260901041416 | 26 | 76 | 11.3 | 16.1 | 0.00 | 0.66 | 0.00 | 82 | 1015.0 |
| 20260901040416 | 26 | 71 | 12.9 | 19.3 | 0.00 | 0.66 | 0.00 | 82 | 1015.0 |
| 20260901035416 | 26 | 71 | 8.0 | 19.3 | 0.00 | 0.66 | 0.00 | 82 | 1014.9 |
| 20260901034416 | 26 | 58 | 6.4 | 11.3 | 0.00 | 0.66 | 0.00 | 82 | 1014.7 |
| 20260901033417 | 27 | 72 | 11.3 | 14.5 | 0.00 | 0.66 | 0.00 | 81 | 1014.6 |
| 20260901032416 | 27 | 69 | 14.5 | 19.3 | 0.00 | 0.66 | 0.00 | 81 | 1014.4 |
| 20260901031436 | 26 | 47 | 8.0 | 14.5 | 0.00 | 0.66 | 0.00 | 82 | 1014.2 |
| 20260901030416 | 26 | 20 | 6.4 | 8.0 | 0.00 | 0.66 | 0.00 | 83 | 1013.9 |
| 20260901025438 | 27 | 56 | 11.3 | 14.5 | 0.00 | 0.66 | 0.00 | 83 | 1013.7 |
| 20260901024416 | 27 | 68 | 9.7 | 16.1 | 0.00 | 0.66 | 0.00 | 83 | 1013.3 |
| 20260901023437 | 27 | 57 | 11.3 | 19.3 | 0.00 | 0.66 | 0.00 | 82 | 1013.4 |
| 20260901022416 | 27 | 62 | 12.9 | 19.3 | 0.00 | 0.66 | 0.00 | 80 | 1013.3 |
| 20260901021417 | 27 | 75 | 11.3 | 14.5 | 0.00 | 0.66 | 0.00 | 80 | 1013.1 |
| 20260901020416 | 27 | 94 | 11.3 | 14.5 | 0.00 | 0.66 | 0.00 | 79 | 1012.8 |
| 20260901015416 | 28 | 44 | 11.3 | 17.7 | 0.00 | 0.66 | 0.00 | 77 | 1012.8 |
| 20260901014417 | 28 | 56 | 8.0 | 20.9 | 0.00 | 0.66 | 0.00 | 77 | 1012.6 |
| 20260901013416 | 28 | 85 | 8.0 | 14.5 | 0.00 | 0.66 | 0.00 | 78 | 1012.3 |
| 20260901012416 | 28 | 72 | 6.4 | 12.9 | 0.00 | 0.66 | 0.00 | 77 | 1012.0 |
| 20260901011416 | 28 | 107 | 4.8 | 6.4 | 0.00 | 0.66 | 0.00 | 77 | 1012.0 |
| 20260901010416 | 28 | 106 | 3.2 | 4.8 | 0.00 | 0.66 | 0.00 | 77 | 1011.7 |
| 20260901005416 | 27 | 330 | 1.6 | 1.6 | 0.00 | 0.66 | 0.00 | 78 | 1011.7 |
| 20260901004416 | 27 | 280 | 1.6 | 3.2 | 0.00 | 0.66 | 0.00 | 78 | 1011.6 |
| 20260901003416 | 27 | 0.0 | 1.6 | 0.00 | 0.66 | 0.00 | 79 | 1011.6 | |
| 20260901002416 | 27 | 289 | 8.0 | 11.3 | 0.00 | 0.66 | 0.00 | 79 | 1011.4 |
| 20260901001436 | 27 | 291 | 12.9 | 14.5 | 0.00 | 0.66 | 0.00 | 78 | 1011.6 |
| 20260901000416 | 28 | 307 | 16.1 | 24.1 | 0.00 | 0.66 | 0.00 | 79 | 1011.6 |
| 20260831235416 | 28 | 320 | 12.9 | 17.7 | 0.00 | 0.66 | 0.66 | 81 | 1011.6 |
| 20260831234416 | 28 | 314 | 4.8 | 6.4 | 0.00 | 0.66 | 0.66 | 81 | 1011.3 |
| 20260831233416 | 28 | 0.0 | 0.0 | 0.00 | 0.66 | 0.66 | 80 | 1011.3 | |
| 20260831232417 | 28 | 271 | 1.6 | 3.2 | 0.00 | 0.66 | 0.66 | 80 | 1011.4 |
| 20260831231517 | 28 | 114 | 1.6 | 6.4 | 0.00 | 0.66 | 0.66 | 80 | 1011.3 |
| 20260831230416 | 28 | 133 | 6.4 | 9.7 | 0.00 | 0.66 | 0.66 | 79 | 1011.1 |
| 20260831225416 | 28 | 187 | 6.4 | 8.0 | 0.00 | 0.66 | 0.66 | 81 | 1011.4 |
| 20260831224416 | 28 | 239 | 1.6 | 3.2 | 0.00 | 0.66 | 0.66 | 84 | 1011.5 |
| 20260831223457 | 27 | 218 | 3.2 | 6.4 | 0.00 | 0.66 | 0.66 | 85 | 1011.6 |
| 20260831222416 | 27 | 305 | 3.2 | 6.4 | 0.03 | 0.66 | 0.66 | 87 | 1011.8 |
| 20260831221416 | 26 | 300 | 8.0 | 11.3 | 0.18 | 0.66 | 0.66 | 91 | 1012.1 |
| 20260831220457 | 25 | 57 | 3.2 | 4.8 | 0.51 | 0.66 | 0.66 | 96 | 1011.8 |
| 20260831215417 | 25 | 188 | 4.8 | 4.8 | 0.58 | 0.66 | 0.66 | 96 | 1011.4 |
| 20260831214416 | 24 | 225 | 1.6 | 4.8 | 0.61 | 0.66 | 0.66 | 95 | 1010.8 |
| 20260831212416 | 24 | 124 | 20.9 | 27.4 | 0.64 | 0.64 | 0.64 | 92 | 1011.9 |
| 20260831211417 | 27 | 178 | 19.3 | 30.6 | 0.48 | 0.48 | 0.48 | 81 | 1012.1 |
| 20260831210417 | 28 | 191 | 17.7 | 30.6 | 0.15 | 0.15 | 0.15 | 78 | 1012.1 |
| 20260831205416 | 32 | 206 | 30.6 | 35.4 | 0.08 | 0.08 | 0.08 | 69 | 1011.9 |
| 20260831204416 | 35 | 107 | 12.9 | 17.7 | 0.05 | 0.05 | 0.05 | 61 | 1011.7 |
| 20260831203436 | 36 | 102 | 4.8 | 9.7 | 0.00 | 0.00 | 0.00 | 53 | 1011.8 |
| 20260831202417 | 36 | 328 | 8.0 | 8.0 | 0.00 | 0.00 | 0.00 | 52 | 1011.7 |
| 20260831201416 | 37 | 238 | 4.8 | 4.8 | 0.00 | 0.00 | 0.00 | 49 | 1012.0 |
| 20260831200416 | 37 | 123 | 0.0 | 4.8 | 0.00 | 0.00 | 0.00 | 50 | 1012.2 |
| 20260831195416 | 36 | 123 | 6.4 | 8.0 | 0.00 | 0.00 | 0.00 | 52 | 1012.3 |
| 20260831194416 | 36 | 93 | 3.2 | 6.4 | 0.00 | 0.00 | 0.00 | 52 | 1012.4 |
| 20260831193416 | 36 | 80 | 6.4 | 8.0 | 0.00 | 0.00 | 0.00 | 52 | 1012.6 |
| 20260831192437 | 36 | 127 | 4.8 | 6.4 | 0.00 | 0.00 | 0.00 | 52 | 1012.8 |
| 20260831191416 | 37 | 145 | 9.7 | 11.3 | 0.00 | 0.00 | 0.00 | 50 | 1013.0 |
| 20260831190416 | 37 | 156 | 6.4 | 8.0 | 0.00 | 0.00 | 0.00 | 51 | 1013.1 |
| 20260831185436 | 36 | 344 | 4.8 | 6.4 | 0.00 | 0.00 | 0.00 | 55 | 1013.2 |
| 20260831184457 | 36 | 296 | 6.4 | 6.4 | 0.00 | 0.00 | 0.00 | 53 | 1013.3 |
| 20260831183416 | 36 | 224 | 4.8 | 8.0 | 0.00 | 0.00 | 0.00 | 54 | 1013.3 |
| 20260831182416 | 36 | 181 | 3.2 | 11.3 | 0.00 | 0.00 | 0.00 | 56 | 1013.6 |
| 20260831181416 | 35 | 358 | 1.6 | 4.8 | 0.00 | 0.00 | 0.00 | 58 | 1013.5 |
| 20260831180436 | 35 | 129 | 9.7 | 14.5 | 0.00 | 0.00 | 0.00 | 59 | 1013.6 |
| 20260831175416 | 34 | 63 | 9.7 | 12.9 | 0.00 | 0.00 | 0.00 | 60 | 1013.7 |
| 20260831174438 | 34 | 96 | 9.7 | 14.5 | 0.00 | 0.00 | 0.00 | 62 | 1013.7 |
| 20260831173437 | 35 | 122 | 11.3 | 14.5 | 0.00 | 0.00 | 0.00 | 61 | 1013.9 |
| 20260831172416 | 35 | 186 | 4.8 | 11.3 | 0.00 | 0.00 | 0.00 | 61 | 1013.8 |
| 20260831171416 | 35 | 115 | 8.0 | 11.3 | 0.00 | 0.00 | 0.00 | 63 | 1013.7 |
| 20260831170416 | 34 | 190 | 4.8 | 6.4 | 0.00 | 0.00 | 0.00 | 64 | 1013.7 |
| 20260831165417 | 33 | 166 | 4.8 | 6.4 | 0.00 | 0.00 | 0.00 | 67 | 1013.7 |
| 20260831164416 | 33 | 121 | 8.0 | 11.3 | 0.00 | 0.00 | 0.00 | 68 | 1013.8 |
| 20260831163416 | 33 | 131 | 8.0 | 12.9 | 0.00 | 0.00 | 0.00 | 68 | 1013.8 |
| 20260831162416 | 32 | 128 | 9.7 | 16.1 | 0.00 | 0.00 | 0.00 | 70 | 1013.9 |
| 20260831161437 | 32 | 158 | 9.7 | 20.9 | 0.00 | 0.00 | 0.00 | 72 | 1014.0 |
| 20260831160416 | 32 | 162 | 8.0 | 14.5 | 0.00 | 0.00 | 0.00 | 74 | 1014.0 |
| 20260831155416 | 31 | 141 | 11.3 | 17.7 | 0.00 | 0.00 | 0.00 | 76 | 1013.9 |
| 20260831154416 | 31 | 131 | 14.5 | 17.7 | 0.00 | 0.00 | 0.00 | 78 | 1013.9 |
| 20260831153438 | 31 | 141 | 9.7 | 12.9 | 0.00 | 0.00 | 0.00 | 81 | 1013.9 |
| 20260831152416 | 30 | 133 | 8.0 | 12.9 | 0.00 | 0.00 | 0.00 | 83 | 1014.1 |
| 20260831151436 | 30 | 140 | 12.9 | 19.3 | 0.00 | 0.00 | 0.00 | 83 | 1014.1 |
| 20260831150417 | 30 | 128 | 9.7 | 12.9 | 0.00 | 0.00 | 0.00 | 83 | 1013.9 |
| 20260831145436 | 30 | 130 | 12.9 | 17.7 | 0.00 | 0.00 | 0.00 | 82 | 1013.7 |
| 20260831144417 | 30 | 140 | 9.7 | 12.9 | 0.00 | 0.00 | 0.00 | 84 | 1013.7 |
| 20260831143436 | 30 | 140 | 11.3 | 20.9 | 0.00 | 0.00 | 0.00 | 85 | 1013.7 |
| 20260831142416 | 30 | 162 | 17.7 | 27.4 | 0.00 | 0.00 | 0.00 | 87 | 1013.6 |
| 20260831141416 | 29 | 160 | 9.7 | 14.5 | 0.00 | 0.00 | 0.00 | 88 | 1013.5 |
| 20260831140416 | 28 | 157 | 11.3 | 14.5 | 0.00 | 0.00 | 0.00 | 89 | 1013.5 |
| 20260831135417 | 28 | 166 | 4.8 | 9.7 | 0.00 | 0.00 | 0.00 | 89 | 1013.5 |
| 20260831134416 | 28 | 170 | 4.8 | 4.8 | 0.00 | 0.00 | 0.00 | 89 | 1013.3 |
| 20260831133416 | 28 | 153 | 8.0 | 12.9 | 0.00 | 0.00 | 0.00 | 89 | 1013.2 |
| 20260831132416 | 28 | 158 | 11.3 | 14.5 | 0.00 | 0.00 | 0.00 | 89 | 1013.1 |